Doylestown, PA

4:55 PM EDT on June 22, 2017 (GMT -0400)
Doylestown

Weather History for KDYL - October, 2012

Change the Weather History Date:

Monday, October 8, 2012

  Actual Average (KTTN) Record (KTTN)
Temperature  
Mean Temperature 44 °F -  
Max Temperature 51 °F 65 °F 90 °F (2007)
Min Temperature 37 °F 45 °F 32 °F (1999)
Degree Days  
Heating Degree Days 21    
Moisture  
Dew Point 42 °F    
Average Humidity 86    
Maximum Humidity 100    
Minimum Humidity 68    
Precipitation  
Precipitation 0.02 in - - ()
Sea Level Pressure  
Sea Level Pressure 30.23 in    
Wind  
Wind Speed 2 mph (North)    
Max Wind Speed 7 mph    
Max Gust Speed -    
Averages and records for this station are not official NWS values.
T = Trace of Precipitation, MM = Missing Value Source: NWS Daily Summary

Daily Weather History Graph

Daily Weather History Graph

Search for Another Location

Airport or City:

Trip Planner

Search our weather history database for the weather conditions in past years. The results will help you decide how hot, cold, wet, or windy it might be!

Date:

Astronomy

Oct. 08, 2012 Rise Set
Actual Time 7:04 AM EDT 6:30 PM EDT
Civil Twilight 6:37 AM EDT 6:57 PM EDT
Nautical Twilight 6:05 AM EDT 7:29 PM EDT
Astronomical Twilight 5:34 AM EDT 8:00 PM EDT
Moon No Moon Rise 2:19 PM EDT (10/8)
Length of Visible Light 12h 20m
Length of Day
11h 26m
Waning Gibbous, 46% of the Moon is Illuminated
Oct 8
Waning Gibbous
Oct 15
New
Oct 21
First Quarter
Oct 29
Full
Nov 6
Last Quarter

Hourly Weather History & Observations

Time (EDT) Temp. Windchill Dew Point Humidity Pressure Visibility Wind Dir Wind Speed Gust Speed Precip Events Conditions
12:02 AM 44.6 °F - 44.6 °F 100% 30.12 in - Calm Calm - N/A   Overcast
12:54 AM 44.1 °F 42.5 °F 43.0 °F 96% 30.14 in - West 3.5 mph - N/A   Overcast
1:36 AM 42.8 °F 39.3 °F 42.8 °F 100% 30.13 in - NW 5.8 mph - N/A   Scattered Clouds
1:54 AM 43.0 °F 40.3 °F 42.1 °F 97% 30.16 in - NW 4.6 mph - N/A   Clear
2:54 AM 43.0 °F 41.3 °F 41.0 °F 93% 30.16 in - NNW 3.5 mph - N/A   Clear
3:54 AM 42.1 °F - 39.9 °F 92% 30.16 in - Calm Calm - N/A   Clear
4:54 AM 39.0 °F - 37.9 °F 96% 30.17 in - Calm Calm - 0.01 in   Clear
5:54 AM 37.0 °F - 37.0 °F 100% 30.20 in - Calm Calm - N/A   Clear
6:54 AM 39.9 °F 37.8 °F 37.9 °F 93% 30.22 in - NW 3.5 mph - N/A   Clear
7:54 AM 41.0 °F 38.0 °F 39.0 °F 93% 30.24 in - NNW 4.6 mph - N/A   Clear
8:54 AM 45.0 °F - 39.9 °F 82% 30.28 in - Calm Calm - N/A   Clear
9:54 AM 46.9 °F - 39.9 °F 77% 30.28 in - North 6.9 mph - N/A   Clear
10:54 AM 48.9 °F - 39.9 °F 71% 30.27 in - North 4.6 mph - N/A   Clear
11:54 AM 50.0 °F - 39.9 °F 68% 30.27 in - NNE 4.6 mph - N/A   Clear
12:54 PM 48.9 °F - 39.9 °F 71% 30.29 in - Calm Calm - N/A   Mostly Cloudy
1:54 PM 51.1 °F - 42.1 °F 71% 30.27 in - SSW 3.5 mph - N/A   Mostly Cloudy
2:54 PM 51.1 °F - 41.0 °F 68% 30.26 in - Calm Calm - N/A   Overcast
3:54 PM 50.0 °F - 42.1 °F 74% 30.26 in - Calm Calm - N/A   Overcast
4:54 PM 50.0 °F - 41.0 °F 71% 30.29 in - Calm Calm - N/A   Overcast
5:54 PM 48.9 °F - 45.0 °F 86% 30.28 in - North - - 0.01 in   Overcast
6:54 PM 48.0 °F - 45.0 °F 89% 30.26 in - Calm Calm - N/A   Mostly Cloudy
7:54 PM 46.9 °F - 45.0 °F 93% 30.25 in - ENE 3.5 mph - N/A   Partly Cloudy
8:54 PM 46.9 °F - 44.1 °F 90% 30.26 in - NE 3.5 mph - N/A   Mostly Cloudy
9:54 PM 46.0 °F 44.8 °F 44.1 °F 93% 30.26 in - NE 3.5 mph - N/A   Scattered Clouds
10:54 PM 46.0 °F 44.8 °F 42.1 °F 86% 30.24 in - NE 3.5 mph - N/A   Mostly Cloudy
11:54 PM 46.9 °F - 43.0 °F 86% 30.23 in - NNE 3.5 mph - N/A   Overcast